Regional Weather Roundup
Issued by NWS

Home | Current Version | Previous Version | Text Only | Print | Product List | Glossary On
Versions: 1 2 3 4 5 6 7 8 9 10 11 12 13 14 15 16 17 18 19 20 21 22 23 24 25 26 27 28 29 30 31 32 33 34 35 36 37 38 39 40 41 42 43 44 45 46 47 48 49 50
000
ASUS45 KREV 040010
RWRNV
NEVADA REGIONAL WEATHER ROUNDUP
NATIONAL WEATHER SERVICE RENO NV
500 PM PDT FRI JUL 03 2015

NOTE: "FAIR" INDICATES FEW OR NO CLOUDS BELOW 12,000 FEET WITH NO
SIGNIFICANT WEATHER AND/OR OBSTRUCTIONS TO VISIBILITY.

NVZ001-003-004-040100-
WESTERN NEVADA

CITY           SKY/WX    TMP DP  RH WIND       PRES   REMARKS
RENO           PTSUNNY   87  53  31 N22G32    30.02S
6HR MIN TEMP:  77; 6HR MAX TEMP:  93; 6HR PCP:  0.01;

CARSON CITY    FAIR      93  46  20 W14G20    30.02S
MINDEN         FAIR      90  54  29 NW17G26   30.02S
SLIDE MTN        N/A     66  52  59 W13         N/A
PYRAMID LAKE     N/A     81 N/A N/A SW18        N/A
FALLON         MOSUNNY   97  46  17 W13       29.90F
6HR MIN TEMP:  88; 6HR MAX TEMP: 100;

LOVELOCK       MOSUNNY   99  48  17 VRB5      29.90F
6HR MIN TEMP:  86; 6HR MAX TEMP: 100;

HAWTHORNE      SUNNY     95  48  20 NW12      29.93F
$$

NVZ002-CAZ072-073-040100-
NORTHERN AND CENTRAL SIERRA

CITY           SKY/WX    TMP DP  RH WIND       PRES   REMARKS
S. LAKE TAHOE  PTSUNNY   83  55  38 NE14      30.16F
6HR MIN TEMP:  73; 6HR MAX TEMP:  84; 6HR PCP: TRACE;

TRUCKEE        PTSUNNY   79  55  44 N3        30.16F
                   6HR MAX TEMP:  81;

SQUAW VLY 8000 NOT AVBL
SUSANVILLE     PTSUNNY   79  55  44 W16G26    30.03R
BLUE CANYON    SUNNY     78  54  43 SW10      30.14F
MAMMOTH LAKES  PTSUNNY   81  37  21 S6        30.21S
BRIDGEPORT     FAIR      85  45  24 SW10      30.15F
$$

NVZ030-031-036-040100-
NORTHERN NEVADA

CITY           SKY/WX    TMP DP  RH WIND       PRES   REMARKS
ELKO           MOSUNNY   93  41  16 W8        29.99F
6HR MIN TEMP:  80; 6HR MAX TEMP:  95;

WINNEMUCCA     SUNNY     95  46  18 CALM      29.93F
6HR MIN TEMP:  87; 6HR MAX TEMP:  98;

WENDOVER       PTSUNNY   97  43  15 E8        29.91F
$$

NVZ035-037-040100-
CENTRAL NEVADA

CITY           SKY/WX    TMP DP  RH WIND       PRES   REMARKS
ELY            MOSUNNY   88  44  21 CALM      30.10F
6HR MIN TEMP:  72; 6HR MAX TEMP:  90; 6HR PCP:  0.08;

EUREKA           N/A     92  39  15 W8G17     30.06F
6HR MIN TEMP:  81; 6HR MAX TEMP:  94;

$$

NVZ013-014-040100-
SOUTH CENTRAL NEVADA

CITY           SKY/WX    TMP DP  RH WIND       PRES   REMARKS
TONOPAH        SUNNY     94  37  13 S10G22    30.04F
6HR MIN TEMP:  86; 6HR MAX TEMP:  96;

$$

NVZ017-020-022-040100-
SOUTHERN NEVADA

CITY           SKY/WX    TMP DP  RH WIND       PRES   REMARKS
LAS VEGAS      MOSUNNY  108  43  11 SW9       29.71F
6HR MIN TEMP: 100; 6HR MAX TEMP: 109;

N. LAS VEGAS   SUNNY    107  43  11 VRB5      29.74F
6HR MIN TEMP:  99; 6HR MAX TEMP: 108;

NELLIS AFB     SUNNY    108  35   8 SE8       29.71F
6HR MIN TEMP: 101; 6HR MAX TEMP: 109;

HENDERSON      SUNNY    107  48  14 W10       29.79F
6HR MIN TEMP:  99; 6HR MAX TEMP: 108;

MERCURY        SUNNY    102  31   8 W9G20     29.87F
6HR MIN TEMP:  93; 6HR MAX TEMP: 103;

$$


USA.gov is the U.S. government's official web portal to all federal, state and local government web resources and services.